Location: Unspecified
(0.0000°N, 0.0000°E)
Time: 22:47:10
(UTC+02:00)

Daily predictions for brighter satellites

Satellite Brightness Start Highest point End
(mag) Time Altitude Azimuth Time Altitude Azimuth Time Altitude Azimuth
CZ-4 R/B 4.2 20:23:00 10° SW 20:25:28 16° WSW 20:27:56 10° WNW
Cosmos 1634 Rocket 4.2 20:21:29 10° N 20:27:47 83° W 20:34:08 10° S
SAR-Lupe-1 4.4 20:24:25 10° S 20:27:58 68° WSW 20:31:29 10° NNW
Cosmos 1953 2.9 20:24:13 10° NNE 20:28:01 39° E 20:31:50 10° SSE
OAO 3 Rocket 4.2 20:24:45 10° NNW 20:29:17 36° NE 20:33:47 10° ESE
Cosmos 1805 4.0 20:26:53 10° NNE 20:30:24 32° E 20:33:55 10° SSE
Ariane H10 3.4 20:24:09 10° W 20:30:47 53° S 20:33:37 10° ESE
OTV 4 0.9 20:29:58 10° SSW 20:32:46 38° SE 20:35:34 10° ENE
Ariane H10-3 3.3 20:22:16 10° W 20:34:38 71° N 20:37:38 10° E
MSX 3.9 20:30:59 10° SSE 20:36:41 64° ENE 20:42:21 10° N
Cosmos 468 Rocket 4.4 20:35:48 10° N 20:40:36 41° ENE 20:45:25 10° SSE
Meteor 1-24 Rocket 4.0 20:40:53 10° SSE 20:46:32 48° E 20:51:58 10° NNE
Cosmos 968 Rocket 3.9 20:42:07 10° S 20:46:50 37° ESE 20:51:33 10° NE
COSMOS 2441 4.3 20:43:35 10° SSE 20:48:25 77° E 20:53:12 10° N
Sakura Rocket 3.7 20:46:18 10° WSW 20:51:58 62° NNW 20:56:10 10° NE
ARIANE 5 DEB (SYLDA) 2.2 20:50:57 10° WSW 20:52:48 43° S 20:54:39 19° ESE
Sylda 5 2.3 20:50:17 10° WSW 20:54:57 52° S 20:57:27 18° ESE
Cosmos 1470 3.9 20:52:04 10° NNE 20:55:19 24° E 20:57:00 18° ESE
Spot 2 Rocket 3.8 20:53:30 10° SSE 20:58:20 47° ENE 21:03:08 10° N
Ariane H10+ 1.2 20:54:57 10° W 21:00:12 85° S 21:01:23 25° E
Ariane 42L R/B 3.6 20:47:46 10° WSW 21:00:14 49° S 21:02:32 21° ESE
Resurs 01 Rocket 1.9 20:56:54 11° SSE 21:00:59 46° ENE 21:05:13 10° N
NOAA 12 4.1 20:57:35 10° SSE 21:02:50 63° ENE 21:08:04 10° N
NOSS 3-1 (C) 4.3 20:59:09 10° SSE 21:03:17 20° ESE 21:07:22 10° ENE
Cosmos 1697 Rocket 4.0 20:59:24 10° NNE 21:03:25 20° ENE 21:04:51 18° E
Helios 1A 2.9 21:01:45 10° SSE 21:06:00 74° ENE 21:10:12 10° N
BREEZE-M DEB (TANK) 4.1 21:03:41 10° N 21:06:33 35° ENE 21:10:05 20° ESE
CZ-4B DEB 4.1 21:06:55 24° E 21:06:58 24° E 21:09:42 10° NNE
Cosmos 405 Rocket 2.6 21:03:34 10° S 21:07:18 83° W 21:10:58 10° N
ALOS 4.1 21:07:48 14° ENE 21:07:48 14° ENE 21:09:43 10° NE
ATLAS 2A CENTAUR R/B 2.6 20:50:21 10° WSW 21:07:41 86° SSE 21:10:58 14° ENE
Cosmos 1842 Rocket 3.5 21:03:21 10° N 21:07:48 74° E 21:12:15 10° S
H-2A R/B 2.6 21:04:43 10° SW 21:08:17 68° SE 21:27:35 10° ENE
Cosmos 1544 3.0 21:05:14 10° N 21:08:50 63° E 21:11:19 19° SSE
Cosmos 1656 4.3 21:05:50 10° N 21:10:49 35° ENE 21:13:03 25° ESE
Cosmos 1733 4.0 21:08:09 10° NNE 21:11:28 29° E 21:11:39 28° E
Cosmos 1766 Rocket 3.5 21:09:54 10° S 21:14:19 66° E 21:18:44 10° NNE
GPS 2-05 Rocket1 3.0 21:11:23 10° WNW 21:14:57 66° SW 21:16:10 36° SSE
Cosmos 2221 3.8 21:17:19 10° NNE 21:19:59 23° ENE 21:19:59 23° ENE
Cosmos 1814 Rocket 4.2 21:15:47 10° NNW 21:21:05 75° WSW 21:25:53 13° S
FREGAT/IRIS 3.7 21:18:50 14° S 21:21:18 46° W 21:24:17 10° NNW
Lacrosse 5 3.9 21:18:48 10° WNW 21:22:40 22° WSW 21:26:33 10° S
Cosmos 1777 Rocket 4.1 21:17:57 10° S 21:23:06 53° ESE 21:28:13 10° NNE
ARIANE 3 DEB 2.5 21:20:44 10° W 21:26:28 71° S 21:26:59 58° ESE
BLOCK DM-SL R/B 3.2 21:28:09 10° W 21:32:20 90° SE 21:35:43 30° E
SEDSat Delta rocket 3.7 21:29:29 10° WNW 21:33:16 38° SSW 21:34:06 34° S
Resurs 1-3 3.5 21:31:19 30° S 21:33:28 87° W 21:37:50 10° NNW
Hubble Space Telescope 2.5 21:31:57 10° W 21:35:40 31° NNW 21:38:59 12° NNE
Cosmos 2026 Rocket 4.0 21:30:06 10° S 21:36:10 79° W 21:42:13 10° N
Cosmos 841 Rocket 3.4 21:32:24 10° N 21:37:34 66° ENE 21:38:51 48° SE
ARIANE 5 DEB (SYLDA 5A) 2.7 21:35:26 10° W 21:37:48 39° NW 21:37:48 39° NW
ARIANE 5 R/B 3.0 21:36:38 10° W 21:40:42 78° S 21:48:28 30° ESE
EUTELSAT W3B 4.2 21:52:13 10° W 21:55:25 79° S 21:56:56 53° ESE
Lacrosse 5 rocket 4.1 21:53:33 10° W 21:55:52 14° WSW 21:58:04 11° SSW
Ariane H10 2.8 21:56:07 10° W 21:59:05 87° N 21:59:16 82° ENE
Ariane H10+ 3.0 22:01:46 10° WSW 22:04:57 27° WSW 22:04:57 27° WSW
FENGYUN 3A 4.4 22:28:57 51° WNW 22:28:57 51° WNW 22:33:16 10° NNW
Cosmos 1980 Rocket 3.3 22:35:04 10° NNW 22:38:40 39° NW 22:38:40 39° NW
Cosmos 1697 Rocket 4.4 22:42:23 10° NW 22:46:39 27° W 22:46:39 27° W
ARIANE 5 DEB (SYLDA) 4.5 22:46:39 10° W 23:20:35 73° WNW 23:20:35 73° WNW
